weather.gov     
National Weather Service

Regional Weather Roundup
NWS Homepage
This page is being discontinued on March 12, 2014.
The same data is available at this site. Please update your bookmarks.
Thank you, and we apologize for the inconvenience.
Please send an email to SR-SRH.Webmaster@noaa.gov with any concerns.


Current Version
Previous Version:    01  02  03  04  05  06  07  08  09  10  11  12  13  14  15  16  17  18  19  20  21  22  23  24  25  26  27  28  29  30  
   31  32  33  34  35  36  37  38  39  40  41  42  43  44  45  46  47  48  49  50  51  52  53  54  
[Printable]
390
ASUS45 KTFX 221404
RWRMT
MONTANA HOURLY WEATHER ROUNDUP
NATIONAL WEATHER SERVICE GREAT FALLS MT
804 AM MDT WED OCT 22 2014

NOTE: "FAIR" INDICATES FEW OR NO CLOUDS BELOW 12000 FEET WITH NO
SIGNIFICANT WEATHER AND/OR OBSTRUCTIONS TO VISIBILITY.

* THESE STATIONS ARE NOT UNDER NWS QUALITY CONTROL. THEY DO NOT
   REPORT WEATHER SUCH AS PRECIPITATION OR FOG.

MTZ001>007-043-221500-
WEST OF THE DIVIDE
CITY           SKY/WX    TMP DP  RH WIND       PRES   REMARKS
KALISPELL      CLOUDY    37  36  96 CALM      30.01S
MISSOULA       PTCLDY    36  36 100 CALM      30.07S
BUTTE          SUNNY     28  27  96 S5        30.10S WCI  22
MULLAN PASS    FOG       34  32  92 VRB7      29.98S WCI  28
* ESSEX        N/A       40  39  96 S3         N/A
* LINCOLN      N/A       39  34  82 S6G14      N/A   WCI  35
* LOOKOUT PASS N/A       34  34 100 SE5        N/A   WCI  29
* POLSON       N/A       37  36  96 SE2        N/A
* RONAN APT    PTCLDY    36  34  92 N/A        N/A
* SEELEY LAKE  N/A       29  28  96 N/A        N/A
* THOMP F APT  PTSUNNY   33  31  92 NE3G9      N/A
$$

MTZ008-052>055-221500-
SOUTHWEST MONTANA
CITY           SKY/WX    TMP DP  RH WIND       PRES   REMARKS
BOZEMAN        SUNNY     30  27  89 CALM      30.10R
DILLON         PTCLDY    30  27  89 S9        30.11R WCI  22
W YELLOWSTONE  CLOUDY    32  32 100 SW10      30.16R WCI  24
* THREE FORKS  SUNNY     32  14  47 N/A        N/A
* BOULDER HILL N/A       35  26  70 SW9        N/A   WCI  28
* MONIDA PASS  N/A       27  27 100 SE8        N/A   WCI  19
* RAYNOLDS PAS N/A       33  19  56 S8G16      N/A   WCI  26
* WHITEHALL    N/A       33  29  85 E2G8       N/A
* WISE RIVER   N/A       26  24  92 W6         N/A   WCI  19
$$

MTZ009>010-012-014-046-048-049-054-221500-
EAST SLOPES AND CENTRAL MONTANA
CITY           SKY/WX    TMP DP  RH WIND       PRES   REMARKS
CUT BANK       SUNNY     45  30  56 W23       29.88S
GREAT FALLS    SUNNY     43  34  71 SW16      29.94R
HELENA         SUNNY     37  30  76 SW3       30.04S
MALMSTROM AFB  SUNNY     41  34  76 SW13      29.96R
* CONRAD       SUNNY     39  34  82 S7         N/A   WCI  34
* DEARBORN     N/A       46  32  58 S2G10      N/A
* EAST GLACIER N/A       42  28  58 W30G45     N/A
* MONARCH      N/A       38  23  55 SW14G22    N/A   WCI  30
* PENDROY      N/A       36  25  64 SW4        N/A
* ROGERS PASS  N/A       37  31  79 SE17G27    N/A   WCI  27
* SAINT MARY   N/A       43  29  58 S9G25      N/A
* SWEET GRASS  N/A       42  32  68 SW17G22    N/A
$$

MTZ011-013-016-021-035-040-045-047-050-051-221500-
NORTH CENTRAL MONTANA
CITY           SKY/WX    TMP DP  RH WIND       PRES   REMARKS
HAVRE          SUNNY     45  36  71 SW18      29.88R
LEWISTOWN      SUNNY     39  30  70 SW12      29.96S WCI  32
* CHINOOK      PTCLDY    48  36  63 SW14      29.86R
* FORT BENTON  SUNNY     43  34  71 SW6       29.94R
* CHESTER      N/A       37  33  85 SW7G12     N/A   WCI  32
* DENTON       N/A       39  32  76 S11        N/A   WCI  32
* GEYSER       N/A       42  28  58 SW12G17    N/A
* JUDITH GAP   N/A       39  31  73 SW18       N/A   WCI  30
* LOMA         N/A       41  34  76 W11        N/A
$$

MTZ017>020-022>027-061-062-221500-
NORTHEAST MONTANA
CITY           SKY/WX    TMP DP  RH WIND       PRES   REMARKS
GLASGOW        PTSUNNY   46  36  68 W12       29.82R
GLENDIVE       SUNNY     45  37  74 SW12      29.89S
JORDAN         SUNNY     41  34  76 W9        29.90S
SIDNEY         SUNNY     46  39  77 S5        29.85R
WOLF POINT     PTSUNNY   52  39  61 W12       29.82R
* BEAVER HILL  N/A       45  38  77 SW14G19    N/A
* CIRCLE       N/A       45  39  80 SW9        N/A
* LINDSAY DVD  N/A       45  35  68 SW19G27    N/A
* NAVAJO       N/A       46  43  89 W15G20     N/A
* SACO         N/A       50  38  64 W17G24     N/A
$$

MTZ028>042-056>058-221500-
SOUTHCENTRAL AND SOUTHEAST MONTANA
CITY           SKY/WX    TMP DP  RH WIND       PRES   REMARKS
BAKER          SUNNY     43  37  79 W10       29.93R
BILLINGS       SUNNY     45  28  51 SW13      30.00R
LIVINGSTON     SUNNY     45  27  49 SW22G38   30.05R
MILES CITY     SUNNY     43  34  71 SW13      29.94S
* LAUREL APT   SUNNY     39  25  57 N/A        N/A
* ROUNDUP APT  SUNNY     46  28  50 SW13G18    N/A
* ALZADA       N/A       38  33  82 W4         N/A
* HYSHAM       N/A       42  29  60 W2         N/A
* LAME DEER    N/A       39  29  67 W8         N/A   WCI  33
* REED POINT   N/A       42  28  58 W6         N/A
* ROSCOE HILL  N/A       44  18  35 S11G17     N/A
$$

REGIONAL REPORTS...DAKOTAS
CITY           SKY/WX    TMP DP  RH WIND       PRES   REMARKS
WILLISTON      SUNNY     48  41  77 SW10      29.81R
DICKINSON      PTSUNNY   46  41  83 W13       29.85R
BEACH          N/A       43  41  93 W13       29.90R
CROSBY         SUNNY     46  45  96 SW16G22   29.74R
TIOGA          SUNNY     46  46 100 W14       29.81R
BISMARCK       CLOUDY    55  46  72 W14G22    29.82R
GRAND FORKS    PTCLDY    54  43  67 S17G29    29.81R
FARGO          SUNNY     54  41  62 SE23G40   29.85S
BUFFALO SD     PTCLDY    45  37  74 W17       29.87R
RAPID CITY     CLOUDY    52  36  55 N21G29    29.95R
$$

REGIONAL REPORTS...WYOMING/IDAHO/WASHINGTON
CITY           SKY/WX    TMP DP  RH WIND       PRES   REMARKS
GILLETTE       PTCLDY    34  28  79 W5        30.04R WCI  29
SHERIDAN       SUNNY     34  25  70 CALM      30.03S
CODY           PTCLDY    45  25  45 CALM      30.05S
YELLOWSTONE LA PTCLDY    28  27  96 CALM      30.18R
SALMON         CLOUDY   N/A N/A N/A N/A        N/A
MULLAN PASS    FOG       34  32  92 VRB7      29.98S WCI  28
SAND POINT     SUNNY     45  43  93 NE8       29.95F
SPOKANE        PTCLDY    45  37  74 SE10      29.91S

$$





U.S. Dept. of Commerce
NOAA National Weather Service
1325 East West Highway
Silver Spring, MD 20910
E-mail: w-nws.webmaster@noaa.gov
Page last modified: May 16, 2007
NATIONAL WEATHER SERVICE: for Safety, for Work, for Fun - FOR LIFE